Fort Greely, AK

3:49 AM AKST on January 24, 2017 (GMT -0900)
Allen Army Air Field

Weather History for PABI - September, 2013

Change the Weather History Date:

Saturday, September 28, 2013

  Actual Average Record
Temperature  
Mean Temperature 34 °F -  
Max Temperature 39 °F 42 °F 60 °F (2015)
Min Temperature 28 °F 26 °F 16 °F (2004)
Degree Days  
Heating Degree Days 32    
Moisture  
Dew Point 31 °F    
Average Humidity 89    
Maximum Humidity 96    
Minimum Humidity 80    
Precipitation  
Precipitation 0.12 in - - ()
Sea Level Pressure  
Sea Level Pressure 29.32 in    
Wind  
Wind Speed 5 mph (West)    
Max Wind Speed 8 mph    
Max Gust Speed -    
Visibility 9 miles    
Events Rain , Snow    
Averages and records for this station are not official NWS values.
T = Trace of Precipitation, MM = Missing Value Source: NWS Daily Summary

Daily Weather History Graph

Daily Weather History Graph

Search for Another Location

Airport or City:

Trip Planner

Search our weather history database for the weather conditions in past years. The results will help you decide how hot, cold, wet, or windy it might be!

Date:

Astronomy

Sep. 28, 2013 Rise Set
Actual Time 7:44 AM AKDT 7:20 PM AKDT
Civil Twilight 6:57 AM AKDT 8:07 PM AKDT
Nautical Twilight 6:00 AM AKDT 9:04 PM AKDT
Astronomical Twilight 4:58 AM AKDT 10:05 PM AKDT
Moon No Moon Rise 5:22 PM AKDT (9/28)
Length of Visible Light 13h 10m
Length of Day
11h 36m
Waning Crescent, 34% of the Moon is Illuminated
Sep 28
Waning Crescent
Oct 4
New
Oct 11
First Quarter
Oct 18
Full
Oct 26
Last Quarter

Hourly Weather History & Observations

Time (AKDT) Temp. Windchill Dew Point Humidity Pressure Visibility Wind Dir Wind Speed Gust Speed Precip Events Conditions
12:53 AM 32.0 °F - 28.0 °F 85% 29.29 in 10.0 mi Calm Calm - N/A   Clear
1:53 AM 28.9 °F 25.2 °F 26.1 °F 89% 29.30 in 10.0 mi SSW 3.5 mph - N/A   Clear
2:53 AM 28.9 °F 23.9 °F 27.0 °F 92% 29.31 in 10.0 mi WSW 4.6 mph - N/A   Clear
3:53 AM 28.9 °F 22.8 °F 27.0 °F 92% 29.32 in 10.0 mi WSW 5.8 mph - N/A   Clear
4:53 AM 30.9 °F 27.5 °F 28.0 °F 89% 29.32 in 10.0 mi WSW 3.5 mph - N/A   Overcast
5:53 AM 32.0 °F 27.5 °F 28.9 °F 88% 29.33 in 10.0 mi SW 4.6 mph - N/A   Overcast
6:53 AM 32.0 °F 27.5 °F 28.9 °F 88% 29.33 in 10.0 mi SW 4.6 mph - N/A   Overcast
7:53 AM 32.0 °F 27.5 °F 30.0 °F 92% 29.34 in 10.0 mi SW 4.6 mph - N/A   Overcast
8:53 AM 33.1 °F 27.7 °F 30.0 °F 89% 29.33 in 10.0 mi WSW 5.8 mph - N/A   Overcast
9:53 AM 34.0 °F 28.8 °F 30.9 °F 89% 29.33 in 10.0 mi West 5.8 mph - N/A   Overcast
10:53 AM 35.1 °F 30.1 °F 32.0 °F 89% 29.32 in 10.0 mi West 5.8 mph - N/A   Overcast
11:02 AM 35.6 °F 30.7 °F 32.0 °F 87% 29.27 in 10.0 mi West 5.8 mph - N/A   Overcast
11:53 AM 37.0 °F 33.3 °F 33.1 °F 86% 29.32 in 10.0 mi WNW 4.6 mph - N/A   Overcast
12:53 PM 37.0 °F 32.4 °F 33.1 °F 86% 29.32 in 10.0 mi West 5.8 mph - N/A   Overcast
1:53 PM 37.9 °F 33.5 °F 34.0 °F 86% 29.32 in 10.0 mi WNW 5.8 mph - 0.00 in Rain Light Rain
2:33 PM 37.4 °F 31.4 °F 33.8 °F 87% 29.26 in 10.0 mi West 8.1 mph - 0.00 in Rain Light Rain
2:53 PM 37.9 °F 32.7 °F 34.0 °F 86% 29.32 in 10.0 mi West 6.9 mph - 0.01 in Rain Light Rain
3:53 PM 37.9 °F 32.1 °F 34.0 °F 86% 29.32 in 10.0 mi WNW 8.1 mph - 0.00 in Rain Light Rain
4:41 PM 37.4 °F 31.4 °F 33.8 °F 87% 29.26 in 10.0 mi WNW 8.1 mph - 0.01 in Rain Light Rain
4:53 PM 37.9 °F 32.1 °F 34.0 °F 86% 29.32 in 10.0 mi WNW 8.1 mph - 0.01 in Rain Light Rain
5:16 PM 37.4 °F 31.4 °F 33.8 °F 87% 29.27 in 10.0 mi WNW 8.1 mph - 0.00 in   Overcast
5:53 PM 37.0 °F 31.6 °F 34.0 °F 89% 29.33 in 9.0 mi WNW 6.9 mph - 0.00 in Rain Light Rain
6:53 PM 36.0 °F 30.3 °F 34.0 °F 93% 29.34 in 5.0 mi West 6.9 mph - 0.02 in Rain Light Rain
7:53 PM 35.1 °F 29.3 °F 34.0 °F 96% 29.35 in 9.0 mi West 6.9 mph - 0.03 in Rain Light Rain
8:53 PM 34.0 °F 27.2 °F 33.1 °F 96% 29.35 in 10.0 mi West 8.1 mph - 0.03 in Rain Light Rain
9:30 PM 33.8 °F 27.7 °F 32.0 °F 93% 29.30 in 10.0 mi West 6.9 mph - 0.01 in Rain Light Rain
9:53 PM 33.1 °F 27.7 °F 32.0 °F 96% 29.36 in 8.0 mi West 5.8 mph - 0.02 in Snow Light Snow
10:22 PM 33.8 °F 29.6 °F 30.2 °F 87% 29.31 in 2.5 mi West 4.6 mph - 0.01 in Snow Light Snow
10:29 PM 33.8 °F 29.6 °F 30.2 °F 87% 29.31 in 5.0 mi WSW 4.6 mph - 0.01 in Snow Light Snow
10:53 PM 32.0 °F 26.4 °F 30.9 °F 96% 29.38 in 5.0 mi SW 5.8 mph - 0.02 in Snow Light Snow
11:53 PM 33.1 °F 27.7 °F 30.9 °F 92% 29.37 in 4.0 mi WSW 5.8 mph - 0.02 in Snow Light Snow